<?xml version="1.0" encoding="UTF-8" standalone="no" ?>
<gpx xmlns="http://www.topografix.com/GPX/1/1" xmlns:xsi="http://www.w3.org/2001/XMLSchema-instance" xsi:schemaLocation="http://www.topografix.com/GPX/1/1 http://www.topografix.com/GPX/1/1/gpx.xsd" version="1.1" creator="VisuGPX - https://www.visugpx.com">
  <metadata>
    <name>St clement la verrerie la chabanne</name>
    <desc><![CDATA[Boucle au depart de st clement avec une bonne mise en jambe au depart et un profile descendant sur la fin]]></desc>
  </metadata>
  <trk>
    <name><![CDATA[track]]></name>
    <trkseg>
      <trkpt lat="46.06228" lon="3.70507">
        <ele>490</ele>
        <time>2008-07-03T20:41:54Z</time>
      </trkpt>
      <trkpt lat="46.06193" lon="3.70603">
        <ele>494</ele>
        <time>2008-07-03T20:41:54Z</time>
      </trkpt>
      <trkpt lat="46.06194" lon="3.70719">
        <ele>501</ele>
        <time>2008-07-03T20:41:54Z</time>
      </trkpt>
      <trkpt lat="46.0619" lon="3.70787">
        <ele>506</ele>
        <time>2008-07-03T20:41:54Z</time>
      </trkpt>
      <trkpt lat="46.0621" lon="3.70881">
        <ele>518</ele>
        <time>2008-07-03T20:41:54Z</time>
      </trkpt>
      <trkpt lat="46.06195" lon="3.70933">
        <ele>523</ele>
        <time>2008-07-03T20:41:54Z</time>
      </trkpt>
      <trkpt lat="46.06184" lon="3.711">
        <ele>540</ele>
        <time>2008-07-03T20:41:54Z</time>
      </trkpt>
      <trkpt lat="46.06184" lon="3.71158">
        <ele>548</ele>
        <time>2008-07-03T20:41:54Z</time>
      </trkpt>
      <trkpt lat="46.06137" lon="3.71332">
        <ele>563</ele>
        <time>2008-07-03T20:41:54Z</time>
      </trkpt>
      <trkpt lat="46.06121" lon="3.71477">
        <ele>574</ele>
        <time>2008-07-03T20:41:54Z</time>
      </trkpt>
      <trkpt lat="46.06071" lon="3.7156">
        <ele>572</ele>
        <time>2008-07-03T20:41:54Z</time>
      </trkpt>
      <trkpt lat="46.06059" lon="3.71595">
        <ele>572</ele>
        <time>2008-07-03T20:41:54Z</time>
      </trkpt>
      <trkpt lat="46.06007" lon="3.71636">
        <ele>573</ele>
        <time>2008-07-03T20:41:54Z</time>
      </trkpt>
      <trkpt lat="46.05979" lon="3.7169">
        <ele>579</ele>
        <time>2008-07-03T20:41:54Z</time>
      </trkpt>
      <trkpt lat="46.05965" lon="3.7178">
        <ele>584</ele>
        <time>2008-07-03T20:41:54Z</time>
      </trkpt>
      <trkpt lat="46.05963" lon="3.71899">
        <ele>590</ele>
        <time>2008-07-03T20:41:54Z</time>
      </trkpt>
      <trkpt lat="46.05969" lon="3.72009">
        <ele>598</ele>
        <time>2008-07-03T20:41:54Z</time>
      </trkpt>
      <trkpt lat="46.05944" lon="3.72193">
        <ele>622</ele>
        <time>2008-07-03T20:41:54Z</time>
      </trkpt>
      <trkpt lat="46.05954" lon="3.72297">
        <ele>633</ele>
        <time>2008-07-03T20:41:54Z</time>
      </trkpt>
      <trkpt lat="46.05998" lon="3.72398">
        <ele>646</ele>
        <time>2008-07-03T20:41:54Z</time>
      </trkpt>
      <trkpt lat="46.06053" lon="3.72464">
        <ele>657</ele>
        <time>2008-07-03T20:41:54Z</time>
      </trkpt>
      <trkpt lat="46.06095" lon="3.72552">
        <ele>667</ele>
        <time>2008-07-03T20:41:54Z</time>
      </trkpt>
      <trkpt lat="46.0619" lon="3.72674">
        <ele>680</ele>
        <time>2008-07-03T20:41:54Z</time>
      </trkpt>
      <trkpt lat="46.06198" lon="3.72736">
        <ele>682</ele>
        <time>2008-07-03T20:41:54Z</time>
      </trkpt>
      <trkpt lat="46.06191" lon="3.72791">
        <ele>686</ele>
        <time>2008-07-03T20:41:54Z</time>
      </trkpt>
      <trkpt lat="46.06177" lon="3.72832">
        <ele>688</ele>
        <time>2008-07-03T20:41:54Z</time>
      </trkpt>
      <trkpt lat="46.06178" lon="3.72871">
        <ele>692</ele>
        <time>2008-07-03T20:41:54Z</time>
      </trkpt>
      <trkpt lat="46.0616" lon="3.72945">
        <ele>694</ele>
        <time>2008-07-03T20:41:54Z</time>
      </trkpt>
      <trkpt lat="46.06201" lon="3.73208">
        <ele>733</ele>
        <time>2008-07-03T20:41:54Z</time>
      </trkpt>
      <trkpt lat="46.06218" lon="3.73276">
        <ele>740</ele>
        <time>2008-07-03T20:41:54Z</time>
      </trkpt>
      <trkpt lat="46.06258" lon="3.73332">
        <ele>752</ele>
        <time>2008-07-03T20:41:54Z</time>
      </trkpt>
      <trkpt lat="46.06271" lon="3.73416">
        <ele>759</ele>
        <time>2008-07-03T20:41:54Z</time>
      </trkpt>
      <trkpt lat="46.06305" lon="3.73517">
        <ele>777</ele>
        <time>2008-07-03T20:41:54Z</time>
      </trkpt>
      <trkpt lat="46.06333" lon="3.73676">
        <ele>788</ele>
        <time>2008-07-03T20:41:54Z</time>
      </trkpt>
      <trkpt lat="46.06381" lon="3.73765">
        <ele>802</ele>
        <time>2008-07-03T20:41:54Z</time>
      </trkpt>
      <trkpt lat="46.06391" lon="3.73875">
        <ele>807</ele>
        <time>2008-07-03T20:41:54Z</time>
      </trkpt>
      <trkpt lat="46.06388" lon="3.73949">
        <ele>808</ele>
        <time>2008-07-03T20:41:54Z</time>
      </trkpt>
      <trkpt lat="46.06355" lon="3.74039">
        <ele>816</ele>
        <time>2008-07-03T20:41:54Z</time>
      </trkpt>
      <trkpt lat="46.06332" lon="3.74074">
        <ele>821</ele>
        <time>2008-07-03T20:41:54Z</time>
      </trkpt>
      <trkpt lat="46.06307" lon="3.74099">
        <ele>825</ele>
        <time>2008-07-03T20:41:54Z</time>
      </trkpt>
      <trkpt lat="46.0622" lon="3.74246">
        <ele>848</ele>
        <time>2008-07-03T20:41:54Z</time>
      </trkpt>
      <trkpt lat="46.06185" lon="3.74319">
        <ele>860</ele>
        <time>2008-07-03T20:41:54Z</time>
      </trkpt>
      <trkpt lat="46.06165" lon="3.74364">
        <ele>864</ele>
        <time>2008-07-03T20:41:54Z</time>
      </trkpt>
      <trkpt lat="46.06161" lon="3.74441">
        <ele>867</ele>
        <time>2008-07-03T20:41:54Z</time>
      </trkpt>
      <trkpt lat="46.06158" lon="3.74535">
        <ele>864</ele>
        <time>2008-07-03T20:41:54Z</time>
      </trkpt>
      <trkpt lat="46.06175" lon="3.74629">
        <ele>868</ele>
        <time>2008-07-03T20:41:54Z</time>
      </trkpt>
      <trkpt lat="46.06172" lon="3.74661">
        <ele>869</ele>
        <time>2008-07-03T20:41:54Z</time>
      </trkpt>
      <trkpt lat="46.0612" lon="3.74838">
        <ele>870</ele>
        <time>2008-07-03T20:41:54Z</time>
      </trkpt>
      <trkpt lat="46.06081" lon="3.74946">
        <ele>869</ele>
        <time>2008-07-03T20:41:54Z</time>
      </trkpt>
      <trkpt lat="46.06055" lon="3.7501">
        <ele>864</ele>
        <time>2008-07-03T20:41:54Z</time>
      </trkpt>
      <trkpt lat="46.05971" lon="3.75095">
        <ele>858</ele>
        <time>2008-07-03T20:41:54Z</time>
      </trkpt>
      <trkpt lat="46.05956" lon="3.75186">
        <ele>855</ele>
        <time>2008-07-03T20:41:54Z</time>
      </trkpt>
      <trkpt lat="46.05975" lon="3.75319">
        <ele>852</ele>
        <time>2008-07-03T20:41:54Z</time>
      </trkpt>
      <trkpt lat="46.05987" lon="3.75435">
        <ele>847</ele>
        <time>2008-07-03T20:41:54Z</time>
      </trkpt>
      <trkpt lat="46.05982" lon="3.75503">
        <ele>844</ele>
        <time>2008-07-03T20:41:54Z</time>
      </trkpt>
      <trkpt lat="46.05968" lon="3.75535">
        <ele>839</ele>
        <time>2008-07-03T20:41:54Z</time>
      </trkpt>
      <trkpt lat="46.05927" lon="3.75553">
        <ele>837</ele>
        <time>2008-07-03T20:41:54Z</time>
      </trkpt>
      <trkpt lat="46.05902" lon="3.75565">
        <ele>837</ele>
        <time>2008-07-03T20:41:54Z</time>
      </trkpt>
      <trkpt lat="46.05881" lon="3.75607">
        <ele>835</ele>
        <time>2008-07-03T20:41:54Z</time>
      </trkpt>
      <trkpt lat="46.05854" lon="3.75842">
        <ele>841</ele>
        <time>2008-07-03T20:41:54Z</time>
      </trkpt>
      <trkpt lat="46.05798" lon="3.75993">
        <ele>845</ele>
        <time>2008-07-03T20:41:54Z</time>
      </trkpt>
      <trkpt lat="46.0573" lon="3.76207">
        <ele>834</ele>
        <time>2008-07-03T20:41:54Z</time>
      </trkpt>
      <trkpt lat="46.05716" lon="3.76259">
        <ele>834</ele>
        <time>2008-07-03T20:41:54Z</time>
      </trkpt>
      <trkpt lat="46.05732" lon="3.76414">
        <ele>838</ele>
        <time>2008-07-03T20:41:54Z</time>
      </trkpt>
      <trkpt lat="46.05734" lon="3.76563">
        <ele>842</ele>
        <time>2008-07-03T20:41:54Z</time>
      </trkpt>
      <trkpt lat="46.05712" lon="3.76695">
        <ele>844</ele>
        <time>2008-07-03T20:41:54Z</time>
      </trkpt>
      <trkpt lat="46.05706" lon="3.76798">
        <ele>846</ele>
        <time>2008-07-03T20:41:54Z</time>
      </trkpt>
      <trkpt lat="46.05755" lon="3.76909">
        <ele>854</ele>
        <time>2008-07-03T20:41:54Z</time>
      </trkpt>
      <trkpt lat="46.05793" lon="3.7693">
        <ele>856</ele>
        <time>2008-07-03T20:41:54Z</time>
      </trkpt>
      <trkpt lat="46.05731" lon="3.77012">
        <ele>867</ele>
        <time>2008-07-03T20:41:54Z</time>
      </trkpt>
      <trkpt lat="46.05703" lon="3.77053">
        <ele>872</ele>
        <time>2008-07-03T20:41:54Z</time>
      </trkpt>
      <trkpt lat="46.05687" lon="3.77124">
        <ele>879</ele>
        <time>2008-07-03T20:41:54Z</time>
      </trkpt>
      <trkpt lat="46.05664" lon="3.77172">
        <ele>883</ele>
        <time>2008-07-03T20:41:54Z</time>
      </trkpt>
      <trkpt lat="46.05611" lon="3.77229">
        <ele>885</ele>
        <time>2008-07-03T20:41:54Z</time>
      </trkpt>
      <trkpt lat="46.0556" lon="3.7736">
        <ele>889</ele>
        <time>2008-07-03T20:41:54Z</time>
      </trkpt>
      <trkpt lat="46.05496" lon="3.77461">
        <ele>895</ele>
        <time>2008-07-03T20:41:54Z</time>
      </trkpt>
      <trkpt lat="46.05436" lon="3.77534">
        <ele>899</ele>
        <time>2008-07-03T20:41:54Z</time>
      </trkpt>
      <trkpt lat="46.05417" lon="3.77592">
        <ele>901</ele>
        <time>2008-07-03T20:41:54Z</time>
      </trkpt>
      <trkpt lat="46.05387" lon="3.77649">
        <ele>904</ele>
        <time>2008-07-03T20:41:54Z</time>
      </trkpt>
      <trkpt lat="46.05342" lon="3.77703">
        <ele>907</ele>
        <time>2008-07-03T20:41:54Z</time>
      </trkpt>
      <trkpt lat="46.053" lon="3.77802">
        <ele>914</ele>
        <time>2008-07-03T20:41:54Z</time>
      </trkpt>
      <trkpt lat="46.05285" lon="3.77908">
        <ele>921</ele>
        <time>2008-07-03T20:41:54Z</time>
      </trkpt>
      <trkpt lat="46.05248" lon="3.77998">
        <ele>925</ele>
        <time>2008-07-03T20:41:54Z</time>
      </trkpt>
      <trkpt lat="46.0523" lon="3.78036">
        <ele>925</ele>
        <time>2008-07-03T20:41:54Z</time>
      </trkpt>
      <trkpt lat="46.05233" lon="3.78149">
        <ele>928</ele>
        <time>2008-07-03T20:41:54Z</time>
      </trkpt>
      <trkpt lat="46.05242" lon="3.78262">
        <ele>934</ele>
        <time>2008-07-03T20:41:54Z</time>
      </trkpt>
      <trkpt lat="46.05287" lon="3.78264">
        <ele>934</ele>
        <time>2008-07-03T20:41:54Z</time>
      </trkpt>
      <trkpt lat="46.05333" lon="3.78236">
        <ele>931</ele>
        <time>2008-07-03T20:41:54Z</time>
      </trkpt>
      <trkpt lat="46.0545" lon="3.78245">
        <ele>932</ele>
        <time>2008-07-03T20:41:54Z</time>
      </trkpt>
      <trkpt lat="46.05524" lon="3.7826">
        <ele>932</ele>
        <time>2008-07-03T20:41:54Z</time>
      </trkpt>
      <trkpt lat="46.05604" lon="3.78304">
        <ele>932</ele>
        <time>2008-07-03T20:41:54Z</time>
      </trkpt>
      <trkpt lat="46.05689" lon="3.78313">
        <ele>927</ele>
        <time>2008-07-03T20:41:54Z</time>
      </trkpt>
      <trkpt lat="46.05749" lon="3.78399">
        <ele>926</ele>
        <time>2008-07-03T20:41:54Z</time>
      </trkpt>
      <trkpt lat="46.05784" lon="3.7848">
        <ele>921</ele>
        <time>2008-07-03T20:41:54Z</time>
      </trkpt>
      <trkpt lat="46.05802" lon="3.78507">
        <ele>914</ele>
        <time>2008-07-03T20:41:54Z</time>
      </trkpt>
      <trkpt lat="46.05899" lon="3.78432">
        <ele>901</ele>
        <time>2008-07-03T20:41:54Z</time>
      </trkpt>
      <trkpt lat="46.05887" lon="3.78351">
        <ele>904</ele>
        <time>2008-07-03T20:41:54Z</time>
      </trkpt>
      <trkpt lat="46.06" lon="3.78302">
        <ele>889</ele>
        <time>2008-07-03T20:41:54Z</time>
      </trkpt>
      <trkpt lat="46.06017" lon="3.7837">
        <ele>886</ele>
        <time>2008-07-03T20:41:54Z</time>
      </trkpt>
      <trkpt lat="46.06042" lon="3.784">
        <ele>883</ele>
        <time>2008-07-03T20:41:54Z</time>
      </trkpt>
      <trkpt lat="46.06059" lon="3.78452">
        <ele>886</ele>
        <time>2008-07-03T20:41:54Z</time>
      </trkpt>
      <trkpt lat="46.06108" lon="3.78453">
        <ele>889</ele>
        <time>2008-07-03T20:41:54Z</time>
      </trkpt>
      <trkpt lat="46.06183" lon="3.78433">
        <ele>891</ele>
        <time>2008-07-03T20:41:54Z</time>
      </trkpt>
      <trkpt lat="46.06286" lon="3.78439">
        <ele>894</ele>
        <time>2008-07-03T20:41:54Z</time>
      </trkpt>
      <trkpt lat="46.0645" lon="3.78472">
        <ele>901</ele>
        <time>2008-07-03T20:41:54Z</time>
      </trkpt>
      <trkpt lat="46.06517" lon="3.78487">
        <ele>897</ele>
        <time>2008-07-03T20:41:54Z</time>
      </trkpt>
      <trkpt lat="46.06582" lon="3.78531">
        <ele>887</ele>
        <time>2008-07-03T20:41:54Z</time>
      </trkpt>
      <trkpt lat="46.06634" lon="3.78655">
        <ele>867</ele>
        <time>2008-07-03T20:41:54Z</time>
      </trkpt>
      <trkpt lat="46.06697" lon="3.78676">
        <ele>859</ele>
        <time>2008-07-03T20:41:54Z</time>
      </trkpt>
      <trkpt lat="46.06744" lon="3.78742">
        <ele>854</ele>
        <time>2008-07-03T20:41:54Z</time>
      </trkpt>
      <trkpt lat="46.06765" lon="3.78804">
        <ele>850</ele>
        <time>2008-07-03T20:41:54Z</time>
      </trkpt>
      <trkpt lat="46.06763" lon="3.78823">
        <ele>850</ele>
        <time>2008-07-03T20:41:54Z</time>
      </trkpt>
      <trkpt lat="46.06845" lon="3.78864">
        <ele>851</ele>
        <time>2008-07-03T20:41:54Z</time>
      </trkpt>
      <trkpt lat="46.06899" lon="3.78911">
        <ele>855</ele>
        <time>2008-07-03T20:41:54Z</time>
      </trkpt>
      <trkpt lat="46.06882" lon="3.78968">
        <ele>857</ele>
        <time>2008-07-03T20:41:54Z</time>
      </trkpt>
      <trkpt lat="46.06934" lon="3.78976">
        <ele>857</ele>
        <time>2008-07-03T20:41:54Z</time>
      </trkpt>
      <trkpt lat="46.06928" lon="3.79054">
        <ele>862</ele>
        <time>2008-07-03T20:41:54Z</time>
      </trkpt>
      <trkpt lat="46.06934" lon="3.79122">
        <ele>870</ele>
        <time>2008-07-03T20:41:54Z</time>
      </trkpt>
      <trkpt lat="46.06985" lon="3.79181">
        <ele>876</ele>
        <time>2008-07-03T20:41:54Z</time>
      </trkpt>
      <trkpt lat="46.0709" lon="3.79252">
        <ele>884</ele>
        <time>2008-07-03T20:41:54Z</time>
      </trkpt>
      <trkpt lat="46.07146" lon="3.79276">
        <ele>883</ele>
        <time>2008-07-03T20:41:54Z</time>
      </trkpt>
      <trkpt lat="46.07239" lon="3.79382">
        <ele>885</ele>
        <time>2008-07-03T20:41:54Z</time>
      </trkpt>
      <trkpt lat="46.07283" lon="3.79451">
        <ele>885</ele>
        <time>2008-07-03T20:41:54Z</time>
      </trkpt>
      <trkpt lat="46.0731" lon="3.79452">
        <ele>886</ele>
        <time>2008-07-03T20:41:54Z</time>
      </trkpt>
      <trkpt lat="46.07349" lon="3.79433">
        <ele>888</ele>
        <time>2008-07-03T20:41:54Z</time>
      </trkpt>
      <trkpt lat="46.07412" lon="3.79448">
        <ele>891</ele>
        <time>2008-07-03T20:41:54Z</time>
      </trkpt>
      <trkpt lat="46.07514" lon="3.79557">
        <ele>906</ele>
        <time>2008-07-03T20:41:54Z</time>
      </trkpt>
      <trkpt lat="46.07556" lon="3.79575">
        <ele>907</ele>
        <time>2008-07-03T20:41:54Z</time>
      </trkpt>
      <trkpt lat="46.07596" lon="3.79601">
        <ele>905</ele>
        <time>2008-07-03T20:41:54Z</time>
      </trkpt>
      <trkpt lat="46.07624" lon="3.79686">
        <ele>905</ele>
        <time>2008-07-03T20:41:54Z</time>
      </trkpt>
      <trkpt lat="46.07611" lon="3.79709">
        <ele>909</ele>
        <time>2008-07-03T20:41:54Z</time>
      </trkpt>
      <trkpt lat="46.0755" lon="3.79717">
        <ele>930</ele>
        <time>2008-07-03T20:41:54Z</time>
      </trkpt>
      <trkpt lat="46.07477" lon="3.7975">
        <ele>943</ele>
        <time>2008-07-03T20:41:54Z</time>
      </trkpt>
      <trkpt lat="46.07457" lon="3.79785">
        <ele>947</ele>
        <time>2008-07-03T20:41:54Z</time>
      </trkpt>
      <trkpt lat="46.0742" lon="3.798">
        <ele>949</ele>
        <time>2008-07-03T20:41:54Z</time>
      </trkpt>
      <trkpt lat="46.07398" lon="3.79839">
        <ele>951</ele>
        <time>2008-07-03T20:41:54Z</time>
      </trkpt>
      <trkpt lat="46.07305" lon="3.79852">
        <ele>948</ele>
        <time>2008-07-03T20:41:54Z</time>
      </trkpt>
      <trkpt lat="46.07238" lon="3.7985">
        <ele>950</ele>
        <time>2008-07-03T20:41:54Z</time>
      </trkpt>
      <trkpt lat="46.07088" lon="3.79779">
        <ele>962</ele>
        <time>2008-07-03T20:41:54Z</time>
      </trkpt>
      <trkpt lat="46.07043" lon="3.79764">
        <ele>968</ele>
        <time>2008-07-03T20:41:54Z</time>
      </trkpt>
      <trkpt lat="46.07011" lon="3.79773">
        <ele>970</ele>
        <time>2008-07-03T20:41:54Z</time>
      </trkpt>
      <trkpt lat="46.0698" lon="3.79805">
        <ele>974</ele>
        <time>2008-07-03T20:41:54Z</time>
      </trkpt>
      <trkpt lat="46.06878" lon="3.79863">
        <ele>972</ele>
        <time>2008-07-03T20:41:54Z</time>
      </trkpt>
      <trkpt lat="46.0685" lon="3.79892">
        <ele>972</ele>
        <time>2008-07-03T20:41:54Z</time>
      </trkpt>
      <trkpt lat="46.06834" lon="3.7995">
        <ele>975</ele>
        <time>2008-07-03T20:41:54Z</time>
      </trkpt>
      <trkpt lat="46.06813" lon="3.79991">
        <ele>973</ele>
        <time>2008-07-03T20:41:54Z</time>
      </trkpt>
      <trkpt lat="46.06778" lon="3.80116">
        <ele>974</ele>
        <time>2008-07-03T20:41:54Z</time>
      </trkpt>
      <trkpt lat="46.06752" lon="3.80177">
        <ele>976</ele>
        <time>2008-07-03T20:41:54Z</time>
      </trkpt>
      <trkpt lat="46.06722" lon="3.80228">
        <ele>973</ele>
        <time>2008-07-03T20:41:54Z</time>
      </trkpt>
      <trkpt lat="46.0671" lon="3.80257">
        <ele>972</ele>
        <time>2008-07-03T20:41:54Z</time>
      </trkpt>
      <trkpt lat="46.06712" lon="3.80276">
        <ele>974</ele>
        <time>2008-07-03T20:41:54Z</time>
      </trkpt>
      <trkpt lat="46.06753" lon="3.80248">
        <ele>981</ele>
        <time>2008-07-03T20:41:54Z</time>
      </trkpt>
      <trkpt lat="46.06832" lon="3.80215">
        <ele>992</ele>
        <time>2008-07-03T20:41:54Z</time>
      </trkpt>
      <trkpt lat="46.06881" lon="3.80142">
        <ele>995</ele>
        <time>2008-07-03T20:41:54Z</time>
      </trkpt>
      <trkpt lat="46.06951" lon="3.80059">
        <ele>995</ele>
        <time>2008-07-03T20:41:54Z</time>
      </trkpt>
      <trkpt lat="46.06952" lon="3.80169">
        <ele>1003</ele>
        <time>2008-07-03T20:41:54Z</time>
      </trkpt>
      <trkpt lat="46.0699" lon="3.80387">
        <ele>1018</ele>
        <time>2008-07-03T20:41:54Z</time>
      </trkpt>
      <trkpt lat="46.07067" lon="3.80521">
        <ele>1022</ele>
        <time>2008-07-03T20:41:54Z</time>
      </trkpt>
      <trkpt lat="46.07172" lon="3.80715">
        <ele>1023</ele>
        <time>2008-07-03T20:41:54Z</time>
      </trkpt>
      <trkpt lat="46.07176" lon="3.80754">
        <ele>1023</ele>
        <time>2008-07-03T20:41:54Z</time>
      </trkpt>
      <trkpt lat="46.07136" lon="3.80921">
        <ele>1013</ele>
        <time>2008-07-03T20:41:54Z</time>
      </trkpt>
      <trkpt lat="46.07106" lon="3.81004">
        <ele>1006</ele>
        <time>2008-07-03T20:41:54Z</time>
      </trkpt>
      <trkpt lat="46.07149" lon="3.81112">
        <ele>1005</ele>
        <time>2008-07-03T20:41:54Z</time>
      </trkpt>
      <trkpt lat="46.07196" lon="3.8131">
        <ele>999</ele>
        <time>2008-07-03T20:41:54Z</time>
      </trkpt>
      <trkpt lat="46.07177" lon="3.81423">
        <ele>996</ele>
        <time>2008-07-03T20:41:54Z</time>
      </trkpt>
      <trkpt lat="46.07018" lon="3.81525">
        <ele>988</ele>
        <time>2008-07-03T20:41:54Z</time>
      </trkpt>
      <trkpt lat="46.06978" lon="3.81621">
        <ele>988</ele>
        <time>2008-07-03T20:41:54Z</time>
      </trkpt>
      <trkpt lat="46.06869" lon="3.81738">
        <ele>997</ele>
        <time>2008-07-03T20:41:54Z</time>
      </trkpt>
      <trkpt lat="46.06817" lon="3.81756">
        <ele>998</ele>
        <time>2008-07-03T20:41:54Z</time>
      </trkpt>
      <trkpt lat="46.06681" lon="3.81639">
        <ele>1002</ele>
        <time>2008-07-03T20:41:54Z</time>
      </trkpt>
      <trkpt lat="46.06536" lon="3.81551">
        <ele>1013</ele>
        <time>2008-07-03T20:41:54Z</time>
      </trkpt>
      <trkpt lat="46.06469" lon="3.81536">
        <ele>1015</ele>
        <time>2008-07-03T20:41:54Z</time>
      </trkpt>
      <trkpt lat="46.06342" lon="3.81436">
        <ele>1022</ele>
        <time>2008-07-03T20:41:54Z</time>
      </trkpt>
      <trkpt lat="46.06184" lon="3.81299">
        <ele>1027</ele>
        <time>2008-07-03T20:41:54Z</time>
      </trkpt>
      <trkpt lat="46.06064" lon="3.8137">
        <ele>1023</ele>
        <time>2008-07-03T20:41:54Z</time>
      </trkpt>
      <trkpt lat="46.06022" lon="3.81272">
        <ele>1023</ele>
        <time>2008-07-03T20:41:54Z</time>
      </trkpt>
      <trkpt lat="46.06002" lon="3.81259">
        <ele>1023</ele>
        <time>2008-07-03T20:41:54Z</time>
      </trkpt>
      <trkpt lat="46.05961" lon="3.81329">
        <ele>1022</ele>
        <time>2008-07-03T20:41:54Z</time>
      </trkpt>
      <trkpt lat="46.05925" lon="3.81334">
        <ele>1018</ele>
        <time>2008-07-03T20:41:54Z</time>
      </trkpt>
      <trkpt lat="46.059" lon="3.81353">
        <ele>1012</ele>
        <time>2008-07-03T20:41:54Z</time>
      </trkpt>
      <trkpt lat="46.05884" lon="3.8134">
        <ele>1010</ele>
        <time>2008-07-03T20:41:54Z</time>
      </trkpt>
      <trkpt lat="46.05854" lon="3.81213">
        <ele>1009</ele>
        <time>2008-07-03T20:41:54Z</time>
      </trkpt>
      <trkpt lat="46.05837" lon="3.8117">
        <ele>1009</ele>
        <time>2008-07-03T20:41:54Z</time>
      </trkpt>
      <trkpt lat="46.05715" lon="3.81041">
        <ele>1008</ele>
        <time>2008-07-03T20:41:54Z</time>
      </trkpt>
      <trkpt lat="46.05676" lon="3.8093">
        <ele>1001</ele>
        <time>2008-07-03T20:41:54Z</time>
      </trkpt>
      <trkpt lat="46.05688" lon="3.80879">
        <ele>1004</ele>
        <time>2008-07-03T20:41:54Z</time>
      </trkpt>
      <trkpt lat="46.05673" lon="3.80807">
        <ele>1005</ele>
        <time>2008-07-03T20:41:54Z</time>
      </trkpt>
      <trkpt lat="46.05631" lon="3.80777">
        <ele>1004</ele>
        <time>2008-07-03T20:41:54Z</time>
      </trkpt>
      <trkpt lat="46.0555" lon="3.80733">
        <ele>1008</ele>
        <time>2008-07-03T20:41:54Z</time>
      </trkpt>
      <trkpt lat="46.05463" lon="3.80724">
        <ele>1011</ele>
        <time>2008-07-03T20:41:54Z</time>
      </trkpt>
      <trkpt lat="46.05418" lon="3.807">
        <ele>1013</ele>
        <time>2008-07-03T20:41:54Z</time>
      </trkpt>
      <trkpt lat="46.05316" lon="3.80555">
        <ele>1012</ele>
        <time>2008-07-03T20:41:54Z</time>
      </trkpt>
      <trkpt lat="46.05259" lon="3.80534">
        <ele>1013</ele>
        <time>2008-07-03T20:41:54Z</time>
      </trkpt>
      <trkpt lat="46.05195" lon="3.80591">
        <ele>1015</ele>
        <time>2008-07-03T20:41:54Z</time>
      </trkpt>
      <trkpt lat="46.05158" lon="3.80667">
        <ele>1015</ele>
        <time>2008-07-03T20:41:54Z</time>
      </trkpt>
      <trkpt lat="46.05072" lon="3.80775">
        <ele>1017</ele>
        <time>2008-07-03T20:41:54Z</time>
      </trkpt>
      <trkpt lat="46.05017" lon="3.80819">
        <ele>1018</ele>
        <time>2008-07-03T20:41:54Z</time>
      </trkpt>
      <trkpt lat="46.04954" lon="3.8083">
        <ele>1023</ele>
        <time>2008-07-03T20:41:54Z</time>
      </trkpt>
      <trkpt lat="46.04891" lon="3.80828">
        <ele>1026</ele>
        <time>2008-07-03T20:41:54Z</time>
      </trkpt>
      <trkpt lat="46.04832" lon="3.8084">
        <ele>1025</ele>
        <time>2008-07-03T20:41:54Z</time>
      </trkpt>
      <trkpt lat="46.0477" lon="3.80793">
        <ele>1021</ele>
        <time>2008-07-03T20:41:54Z</time>
      </trkpt>
      <trkpt lat="46.04712" lon="3.80752">
        <ele>1019</ele>
        <time>2008-07-03T20:41:54Z</time>
      </trkpt>
      <trkpt lat="46.04649" lon="3.80725">
        <ele>1013</ele>
        <time>2008-07-03T20:41:54Z</time>
      </trkpt>
      <trkpt lat="46.04549" lon="3.80787">
        <ele>1011</ele>
        <time>2008-07-03T20:41:54Z</time>
      </trkpt>
      <trkpt lat="46.04454" lon="3.80855">
        <ele>1002</ele>
        <time>2008-07-03T20:41:54Z</time>
      </trkpt>
      <trkpt lat="46.04377" lon="3.80924">
        <ele>998</ele>
        <time>2008-07-03T20:41:54Z</time>
      </trkpt>
      <trkpt lat="46.04304" lon="3.80968">
        <ele>996</ele>
        <time>2008-07-03T20:41:54Z</time>
      </trkpt>
      <trkpt lat="46.04218" lon="3.81017">
        <ele>993</ele>
        <time>2008-07-03T20:41:54Z</time>
      </trkpt>
      <trkpt lat="46.04161" lon="3.80983">
        <ele>988</ele>
        <time>2008-07-03T20:41:54Z</time>
      </trkpt>
      <trkpt lat="46.0413" lon="3.80969">
        <ele>983</ele>
        <time>2008-07-03T20:41:54Z</time>
      </trkpt>
      <trkpt lat="46.04039" lon="3.81038">
        <ele>976</ele>
        <time>2008-07-03T20:41:54Z</time>
      </trkpt>
      <trkpt lat="46.04001" lon="3.81005">
        <ele>968</ele>
        <time>2008-07-03T20:41:54Z</time>
      </trkpt>
      <trkpt lat="46.03971" lon="3.80936">
        <ele>963</ele>
        <time>2008-07-03T20:41:54Z</time>
      </trkpt>
      <trkpt lat="46.0399" lon="3.80849">
        <ele>955</ele>
        <time>2008-07-03T20:41:54Z</time>
      </trkpt>
      <trkpt lat="46.0397" lon="3.80807">
        <ele>949</ele>
        <time>2008-07-03T20:41:54Z</time>
      </trkpt>
      <trkpt lat="46.03975" lon="3.80765">
        <ele>946</ele>
        <time>2008-07-03T20:41:54Z</time>
      </trkpt>
      <trkpt lat="46.0393" lon="3.8078">
        <ele>944</ele>
        <time>2008-07-03T20:41:54Z</time>
      </trkpt>
      <trkpt lat="46.03906" lon="3.80744">
        <ele>947</ele>
        <time>2008-07-03T20:41:54Z</time>
      </trkpt>
      <trkpt lat="46.03887" lon="3.80627">
        <ele>950</ele>
        <time>2008-07-03T20:41:54Z</time>
      </trkpt>
      <trkpt lat="46.03834" lon="3.80509">
        <ele>959</ele>
        <time>2008-07-03T20:41:54Z</time>
      </trkpt>
      <trkpt lat="46.03809" lon="3.80415">
        <ele>959</ele>
        <time>2008-07-03T20:41:54Z</time>
      </trkpt>
      <trkpt lat="46.03687" lon="3.80247">
        <ele>966</ele>
        <time>2008-07-03T20:41:54Z</time>
      </trkpt>
      <trkpt lat="46.03576" lon="3.80134">
        <ele>984</ele>
        <time>2008-07-03T20:41:54Z</time>
      </trkpt>
      <trkpt lat="46.03475" lon="3.79983">
        <ele>991</ele>
        <time>2008-07-03T20:41:54Z</time>
      </trkpt>
      <trkpt lat="46.03415" lon="3.79874">
        <ele>980</ele>
        <time>2008-07-03T20:41:54Z</time>
      </trkpt>
      <trkpt lat="46.03267" lon="3.79887">
        <ele>973</ele>
        <time>2008-07-03T20:41:54Z</time>
      </trkpt>
      <trkpt lat="46.03151" lon="3.79751">
        <ele>954</ele>
        <time>2008-07-03T20:41:54Z</time>
      </trkpt>
      <trkpt lat="46.03002" lon="3.79828">
        <ele>934</ele>
        <time>2008-07-03T20:41:54Z</time>
      </trkpt>
      <trkpt lat="46.02912" lon="3.79838">
        <ele>912</ele>
        <time>2008-07-03T20:41:54Z</time>
      </trkpt>
      <trkpt lat="46.02794" lon="3.79893">
        <ele>895</ele>
        <time>2008-07-03T20:41:54Z</time>
      </trkpt>
      <trkpt lat="46.02744" lon="3.79915">
        <ele>888</ele>
        <time>2008-07-03T20:41:54Z</time>
      </trkpt>
      <trkpt lat="46.02604" lon="3.7983">
        <ele>862</ele>
        <time>2008-07-03T20:41:54Z</time>
      </trkpt>
      <trkpt lat="46.02623" lon="3.79727">
        <ele>865</ele>
        <time>2008-07-03T20:41:54Z</time>
      </trkpt>
      <trkpt lat="46.02624" lon="3.79647">
        <ele>861</ele>
        <time>2008-07-03T20:41:54Z</time>
      </trkpt>
      <trkpt lat="46.02659" lon="3.79525">
        <ele>863</ele>
        <time>2008-07-03T20:41:54Z</time>
      </trkpt>
      <trkpt lat="46.02663" lon="3.79451">
        <ele>857</ele>
        <time>2008-07-03T20:41:54Z</time>
      </trkpt>
      <trkpt lat="46.02707" lon="3.79332">
        <ele>866</ele>
        <time>2008-07-03T20:41:54Z</time>
      </trkpt>
      <trkpt lat="46.02751" lon="3.79246">
        <ele>870</ele>
        <time>2008-07-03T20:41:54Z</time>
      </trkpt>
      <trkpt lat="46.02808" lon="3.79164">
        <ele>877</ele>
        <time>2008-07-03T20:41:54Z</time>
      </trkpt>
      <trkpt lat="46.02861" lon="3.79052">
        <ele>887</ele>
        <time>2008-07-03T20:41:54Z</time>
      </trkpt>
      <trkpt lat="46.02926" lon="3.78899">
        <ele>905</ele>
        <time>2008-07-03T20:41:54Z</time>
      </trkpt>
      <trkpt lat="46.02975" lon="3.78794">
        <ele>917</ele>
        <time>2008-07-03T20:41:54Z</time>
      </trkpt>
      <trkpt lat="46.03014" lon="3.78737">
        <ele>916</ele>
        <time>2008-07-03T20:41:54Z</time>
      </trkpt>
      <trkpt lat="46.02952" lon="3.78638">
        <ele>867</ele>
        <time>2008-07-03T20:41:54Z</time>
      </trkpt>
      <trkpt lat="46.02865" lon="3.78594">
        <ele>822</ele>
        <time>2008-07-03T20:41:54Z</time>
      </trkpt>
      <trkpt lat="46.02822" lon="3.78583">
        <ele>802</ele>
        <time>2008-07-03T20:41:54Z</time>
      </trkpt>
      <trkpt lat="46.02809" lon="3.78373">
        <ele>796</ele>
        <time>2008-07-03T20:41:54Z</time>
      </trkpt>
      <trkpt lat="46.0276" lon="3.78145">
        <ele>798</ele>
        <time>2008-07-03T20:41:54Z</time>
      </trkpt>
      <trkpt lat="46.02732" lon="3.78044">
        <ele>802</ele>
        <time>2008-07-03T20:41:54Z</time>
      </trkpt>
      <trkpt lat="46.02744" lon="3.77996">
        <ele>807</ele>
        <time>2008-07-03T20:41:54Z</time>
      </trkpt>
      <trkpt lat="46.02704" lon="3.78015">
        <ele>794</ele>
        <time>2008-07-03T20:41:54Z</time>
      </trkpt>
      <trkpt lat="46.02681" lon="3.77982">
        <ele>788</ele>
        <time>2008-07-03T20:41:54Z</time>
      </trkpt>
      <trkpt lat="46.02626" lon="3.77935">
        <ele>778</ele>
        <time>2008-07-03T20:41:54Z</time>
      </trkpt>
      <trkpt lat="46.02572" lon="3.7795">
        <ele>760</ele>
        <time>2008-07-03T20:41:54Z</time>
      </trkpt>
      <trkpt lat="46.0261" lon="3.77563">
        <ele>707</ele>
        <time>2008-07-03T20:41:54Z</time>
      </trkpt>
      <trkpt lat="46.0262" lon="3.77496">
        <ele>714</ele>
        <time>2008-07-03T20:41:54Z</time>
      </trkpt>
      <trkpt lat="46.02705" lon="3.77401">
        <ele>713</ele>
        <time>2008-07-03T20:41:54Z</time>
      </trkpt>
      <trkpt lat="46.02744" lon="3.77341">
        <ele>702</ele>
        <time>2008-07-03T20:41:54Z</time>
      </trkpt>
      <trkpt lat="46.02763" lon="3.77244">
        <ele>697</ele>
        <time>2008-07-03T20:41:54Z</time>
      </trkpt>
      <trkpt lat="46.02812" lon="3.77126">
        <ele>687</ele>
        <time>2008-07-03T20:41:54Z</time>
      </trkpt>
      <trkpt lat="46.02894" lon="3.77031">
        <ele>676</ele>
        <time>2008-07-03T20:41:54Z</time>
      </trkpt>
      <trkpt lat="46.03003" lon="3.76921">
        <ele>668</ele>
        <time>2008-07-03T20:41:54Z</time>
      </trkpt>
      <trkpt lat="46.03077" lon="3.76794">
        <ele>662</ele>
        <time>2008-07-03T20:41:54Z</time>
      </trkpt>
      <trkpt lat="46.03081" lon="3.76665">
        <ele>663</ele>
        <time>2008-07-03T20:41:54Z</time>
      </trkpt>
      <trkpt lat="46.03109" lon="3.76572">
        <ele>647</ele>
        <time>2008-07-03T20:41:54Z</time>
      </trkpt>
      <trkpt lat="46.03231" lon="3.76301">
        <ele>675</ele>
        <time>2008-07-03T20:41:54Z</time>
      </trkpt>
      <trkpt lat="46.03146" lon="3.76176">
        <ele>674</ele>
        <time>2008-07-03T20:41:54Z</time>
      </trkpt>
      <trkpt lat="46.03017" lon="3.76101">
        <ele>679</ele>
        <time>2008-07-03T20:41:54Z</time>
      </trkpt>
      <trkpt lat="46.02868" lon="3.76104">
        <ele>724</ele>
        <time>2008-07-03T20:41:54Z</time>
      </trkpt>
      <trkpt lat="46.02799" lon="3.75986">
        <ele>733</ele>
        <time>2008-07-03T20:41:54Z</time>
      </trkpt>
      <trkpt lat="46.02684" lon="3.75847">
        <ele>734</ele>
        <time>2008-07-03T20:41:54Z</time>
      </trkpt>
      <trkpt lat="46.02522" lon="3.75668">
        <ele>730</ele>
        <time>2008-07-03T20:41:54Z</time>
      </trkpt>
      <trkpt lat="46.02509" lon="3.7561">
        <ele>721</ele>
        <time>2008-07-03T20:41:54Z</time>
      </trkpt>
      <trkpt lat="46.02425" lon="3.75498">
        <ele>708</ele>
        <time>2008-07-03T20:41:54Z</time>
      </trkpt>
      <trkpt lat="46.02329" lon="3.75424">
        <ele>695</ele>
        <time>2008-07-03T20:41:54Z</time>
      </trkpt>
      <trkpt lat="46.02278" lon="3.75417">
        <ele>691</ele>
        <time>2008-07-03T20:41:54Z</time>
      </trkpt>
      <trkpt lat="46.02231" lon="3.75374">
        <ele>686</ele>
        <time>2008-07-03T20:41:54Z</time>
      </trkpt>
      <trkpt lat="46.02202" lon="3.75305">
        <ele>682</ele>
        <time>2008-07-03T20:41:54Z</time>
      </trkpt>
      <trkpt lat="46.02173" lon="3.75307">
        <ele>679</ele>
        <time>2008-07-03T20:41:54Z</time>
      </trkpt>
      <trkpt lat="46.02115" lon="3.7527">
        <ele>674</ele>
        <time>2008-07-03T20:41:54Z</time>
      </trkpt>
      <trkpt lat="46.0205" lon="3.75275">
        <ele>668</ele>
        <time>2008-07-03T20:41:54Z</time>
      </trkpt>
      <trkpt lat="46.02027" lon="3.75268">
        <ele>668</ele>
        <time>2008-07-03T20:41:54Z</time>
      </trkpt>
      <trkpt lat="46.02008" lon="3.75222">
        <ele>662</ele>
        <time>2008-07-03T20:41:54Z</time>
      </trkpt>
      <trkpt lat="46.01982" lon="3.75164">
        <ele>656</ele>
        <time>2008-07-03T20:41:54Z</time>
      </trkpt>
      <trkpt lat="46.01962" lon="3.75131">
        <ele>654</ele>
        <time>2008-07-03T20:41:54Z</time>
      </trkpt>
      <trkpt lat="46.01908" lon="3.75117">
        <ele>648</ele>
        <time>2008-07-03T20:41:54Z</time>
      </trkpt>
      <trkpt lat="46.01833" lon="3.75144">
        <ele>642</ele>
        <time>2008-07-03T20:41:54Z</time>
      </trkpt>
      <trkpt lat="46.01759" lon="3.75135">
        <ele>627</ele>
        <time>2008-07-03T20:41:54Z</time>
      </trkpt>
      <trkpt lat="46.01781" lon="3.75191">
        <ele>631</ele>
        <time>2008-07-03T20:41:54Z</time>
      </trkpt>
      <trkpt lat="46.0178" lon="3.75255">
        <ele>626</ele>
        <time>2008-07-03T20:41:54Z</time>
      </trkpt>
      <trkpt lat="46.01694" lon="3.75327">
        <ele>614</ele>
        <time>2008-07-03T20:41:54Z</time>
      </trkpt>
      <trkpt lat="46.01635" lon="3.75374">
        <ele>596</ele>
        <time>2008-07-03T20:41:54Z</time>
      </trkpt>
      <trkpt lat="46.01642" lon="3.75494">
        <ele>585</ele>
        <time>2008-07-03T20:41:54Z</time>
      </trkpt>
      <trkpt lat="46.01602" lon="3.75457">
        <ele>580</ele>
        <time>2008-07-03T20:41:54Z</time>
      </trkpt>
      <trkpt lat="46.01573" lon="3.75453">
        <ele>578</ele>
        <time>2008-07-03T20:41:54Z</time>
      </trkpt>
      <trkpt lat="46.0157" lon="3.7536">
        <ele>578</ele>
        <time>2008-07-03T20:41:54Z</time>
      </trkpt>
      <trkpt lat="46.0158" lon="3.7526">
        <ele>578</ele>
        <time>2008-07-03T20:41:54Z</time>
      </trkpt>
      <trkpt lat="46.01615" lon="3.75177">
        <ele>575</ele>
        <time>2008-07-03T20:41:54Z</time>
      </trkpt>
      <trkpt lat="46.01582" lon="3.75069">
        <ele>576</ele>
        <time>2008-07-03T20:41:54Z</time>
      </trkpt>
      <trkpt lat="46.01527" lon="3.7501">
        <ele>572</ele>
        <time>2008-07-03T20:41:54Z</time>
      </trkpt>
      <trkpt lat="46.01474" lon="3.74941">
        <ele>566</ele>
        <time>2008-07-03T20:41:54Z</time>
      </trkpt>
      <trkpt lat="46.0141" lon="3.74839">
        <ele>563</ele>
        <time>2008-07-03T20:41:54Z</time>
      </trkpt>
      <trkpt lat="46.01377" lon="3.74764">
        <ele>554</ele>
        <time>2008-07-03T20:41:54Z</time>
      </trkpt>
      <trkpt lat="46.01351" lon="3.74686">
        <ele>548</ele>
        <time>2008-07-03T20:41:54Z</time>
      </trkpt>
      <trkpt lat="46.01293" lon="3.74662">
        <ele>548</ele>
        <time>2008-07-03T20:41:54Z</time>
      </trkpt>
      <trkpt lat="46.01296" lon="3.746">
        <ele>547</ele>
        <time>2008-07-03T20:41:54Z</time>
      </trkpt>
      <trkpt lat="46.01316" lon="3.74572">
        <ele>546</ele>
        <time>2008-07-03T20:41:54Z</time>
      </trkpt>
      <trkpt lat="46.01331" lon="3.74498">
        <ele>549</ele>
        <time>2008-07-03T20:41:54Z</time>
      </trkpt>
      <trkpt lat="46.01336" lon="3.7444">
        <ele>555</ele>
        <time>2008-07-03T20:41:54Z</time>
      </trkpt>
      <trkpt lat="46.01324" lon="3.74291">
        <ele>567</ele>
        <time>2008-07-03T20:41:54Z</time>
      </trkpt>
      <trkpt lat="46.01368" lon="3.74005">
        <ele>586</ele>
        <time>2008-07-03T20:41:54Z</time>
      </trkpt>
      <trkpt lat="46.01412" lon="3.73725">
        <ele>590</ele>
        <time>2008-07-03T20:41:54Z</time>
      </trkpt>
      <trkpt lat="46.01417" lon="3.73567">
        <ele>586</ele>
        <time>2008-07-03T20:41:54Z</time>
      </trkpt>
      <trkpt lat="46.0138" lon="3.7345">
        <ele>586</ele>
        <time>2008-07-03T20:41:54Z</time>
      </trkpt>
      <trkpt lat="46.01421" lon="3.73386">
        <ele>591</ele>
        <time>2008-07-03T20:41:54Z</time>
      </trkpt>
      <trkpt lat="46.01503" lon="3.73314">
        <ele>599</ele>
        <time>2008-07-03T20:41:54Z</time>
      </trkpt>
      <trkpt lat="46.01571" lon="3.73251">
        <ele>603</ele>
        <time>2008-07-03T20:41:54Z</time>
      </trkpt>
      <trkpt lat="46.0161" lon="3.73162">
        <ele>607</ele>
        <time>2008-07-03T20:41:54Z</time>
      </trkpt>
      <trkpt lat="46.01705" lon="3.73125">
        <ele>602</ele>
        <time>2008-07-03T20:41:54Z</time>
      </trkpt>
      <trkpt lat="46.01797" lon="3.73034">
        <ele>595</ele>
        <time>2008-07-03T20:41:54Z</time>
      </trkpt>
      <trkpt lat="46.01893" lon="3.73017">
        <ele>596</ele>
        <time>2008-07-03T20:41:54Z</time>
      </trkpt>
      <trkpt lat="46.01886" lon="3.73075">
        <ele>596</ele>
        <time>2008-07-03T20:41:54Z</time>
      </trkpt>
      <trkpt lat="46.01846" lon="3.73223">
        <ele>599</ele>
        <time>2008-07-03T20:41:54Z</time>
      </trkpt>
      <trkpt lat="46.01861" lon="3.73291">
        <ele>598</ele>
        <time>2008-07-03T20:41:54Z</time>
      </trkpt>
      <trkpt lat="46.02014" lon="3.73253">
        <ele>604</ele>
        <time>2008-07-03T20:41:54Z</time>
      </trkpt>
      <trkpt lat="46.02021" lon="3.73095">
        <ele>605</ele>
        <time>2008-07-03T20:41:54Z</time>
      </trkpt>
      <trkpt lat="46.02063" lon="3.72973">
        <ele>607</ele>
        <time>2008-07-03T20:41:54Z</time>
      </trkpt>
      <trkpt lat="46.02131" lon="3.72907">
        <ele>609</ele>
        <time>2008-07-03T20:41:54Z</time>
      </trkpt>
      <trkpt lat="46.02276" lon="3.72985">
        <ele>603</ele>
        <time>2008-07-03T20:41:54Z</time>
      </trkpt>
      <trkpt lat="46.02314" lon="3.73015">
        <ele>599</ele>
        <time>2008-07-03T20:41:54Z</time>
      </trkpt>
      <trkpt lat="46.02416" lon="3.72992">
        <ele>593</ele>
        <time>2008-07-03T20:41:54Z</time>
      </trkpt>
      <trkpt lat="46.02449" lon="3.73067">
        <ele>589</ele>
        <time>2008-07-03T20:41:54Z</time>
      </trkpt>
      <trkpt lat="46.02551" lon="3.73115">
        <ele>601</ele>
        <time>2008-07-03T20:41:54Z</time>
      </trkpt>
      <trkpt lat="46.02614" lon="3.73136">
        <ele>600</ele>
        <time>2008-07-03T20:41:54Z</time>
      </trkpt>
      <trkpt lat="46.02682" lon="3.73089">
        <ele>598</ele>
        <time>2008-07-03T20:41:54Z</time>
      </trkpt>
      <trkpt lat="46.02747" lon="3.73084">
        <ele>592</ele>
        <time>2008-07-03T20:41:54Z</time>
      </trkpt>
      <trkpt lat="46.02743" lon="3.73052">
        <ele>593</ele>
        <time>2008-07-03T20:41:54Z</time>
      </trkpt>
      <trkpt lat="46.02782" lon="3.72985">
        <ele>588</ele>
        <time>2008-07-03T20:41:54Z</time>
      </trkpt>
      <trkpt lat="46.02828" lon="3.72922">
        <ele>579</ele>
        <time>2008-07-03T20:41:54Z</time>
      </trkpt>
      <trkpt lat="46.02849" lon="3.72874">
        <ele>573</ele>
        <time>2008-07-03T20:41:54Z</time>
      </trkpt>
      <trkpt lat="46.0293" lon="3.7284">
        <ele>552</ele>
        <time>2008-07-03T20:41:54Z</time>
      </trkpt>
      <trkpt lat="46.02951" lon="3.72812">
        <ele>549</ele>
        <time>2008-07-03T20:41:54Z</time>
      </trkpt>
      <trkpt lat="46.02956" lon="3.72757">
        <ele>547</ele>
        <time>2008-07-03T20:41:54Z</time>
      </trkpt>
      <trkpt lat="46.03005" lon="3.72784">
        <ele>543</ele>
        <time>2008-07-03T20:41:54Z</time>
      </trkpt>
      <trkpt lat="46.03141" lon="3.72762">
        <ele>535</ele>
        <time>2008-07-03T20:41:54Z</time>
      </trkpt>
      <trkpt lat="46.03144" lon="3.72658">
        <ele>535</ele>
        <time>2008-07-03T20:41:54Z</time>
      </trkpt>
      <trkpt lat="46.03167" lon="3.72591">
        <ele>535</ele>
        <time>2008-07-03T20:41:54Z</time>
      </trkpt>
      <trkpt lat="46.03177" lon="3.72588">
        <ele>537</ele>
        <time>2008-07-03T20:41:54Z</time>
      </trkpt>
      <trkpt lat="46.0319" lon="3.7263">
        <ele>542</ele>
        <time>2008-07-03T20:41:54Z</time>
      </trkpt>
      <trkpt lat="46.03194" lon="3.72647">
        <ele>544</ele>
        <time>2008-07-03T20:41:54Z</time>
      </trkpt>
      <trkpt lat="46.03219" lon="3.72647">
        <ele>549</ele>
        <time>2008-07-03T20:41:54Z</time>
      </trkpt>
      <trkpt lat="46.03237" lon="3.72606">
        <ele>554</ele>
        <time>2008-07-03T20:41:54Z</time>
      </trkpt>
      <trkpt lat="46.03247" lon="3.72558">
        <ele>558</ele>
        <time>2008-07-03T20:41:54Z</time>
      </trkpt>
      <trkpt lat="46.03241" lon="3.72473">
        <ele>563</ele>
        <time>2008-07-03T20:41:54Z</time>
      </trkpt>
      <trkpt lat="46.03241" lon="3.72438">
        <ele>566</ele>
        <time>2008-07-03T20:41:54Z</time>
      </trkpt>
      <trkpt lat="46.03255" lon="3.7239">
        <ele>572</ele>
        <time>2008-07-03T20:41:54Z</time>
      </trkpt>
      <trkpt lat="46.0333" lon="3.72385">
        <ele>581</ele>
        <time>2008-07-03T20:41:54Z</time>
      </trkpt>
      <trkpt lat="46.03387" lon="3.72283">
        <ele>585</ele>
        <time>2008-07-03T20:41:54Z</time>
      </trkpt>
      <trkpt lat="46.03412" lon="3.72248">
        <ele>585</ele>
        <time>2008-07-03T20:41:54Z</time>
      </trkpt>
      <trkpt lat="46.03454" lon="3.72156">
        <ele>585</ele>
        <time>2008-07-03T20:41:54Z</time>
      </trkpt>
      <trkpt lat="46.03511" lon="3.72089">
        <ele>585</ele>
        <time>2008-07-03T20:41:54Z</time>
      </trkpt>
      <trkpt lat="46.03561" lon="3.72036">
        <ele>585</ele>
        <time>2008-07-03T20:41:54Z</time>
      </trkpt>
      <trkpt lat="46.03613" lon="3.72005">
        <ele>587</ele>
        <time>2008-07-03T20:41:54Z</time>
      </trkpt>
      <trkpt lat="46.03749" lon="3.71772">
        <ele>603</ele>
        <time>2008-07-03T20:41:54Z</time>
      </trkpt>
      <trkpt lat="46.03761" lon="3.71686">
        <ele>605</ele>
        <time>2008-07-03T20:41:54Z</time>
      </trkpt>
      <trkpt lat="46.03668" lon="3.71418">
        <ele>612</ele>
        <time>2008-07-03T20:41:54Z</time>
      </trkpt>
      <trkpt lat="46.03586" lon="3.7131">
        <ele>618</ele>
        <time>2008-07-03T20:41:54Z</time>
      </trkpt>
      <trkpt lat="46.03553" lon="3.71238">
        <ele>622</ele>
        <time>2008-07-03T20:41:54Z</time>
      </trkpt>
      <trkpt lat="46.03586" lon="3.71155">
        <ele>627</ele>
        <time>2008-07-03T20:41:54Z</time>
      </trkpt>
      <trkpt lat="46.03597" lon="3.711">
        <ele>629</ele>
        <time>2008-07-03T20:41:54Z</time>
      </trkpt>
      <trkpt lat="46.03577" lon="3.70944">
        <ele>639</ele>
        <time>2008-07-03T20:41:54Z</time>
      </trkpt>
      <trkpt lat="46.03746" lon="3.70752">
        <ele>647</ele>
        <time>2008-07-03T20:41:54Z</time>
      </trkpt>
      <trkpt lat="46.03815" lon="3.70618">
        <ele>649</ele>
        <time>2008-07-03T20:41:54Z</time>
      </trkpt>
      <trkpt lat="46.03855" lon="3.70302">
        <ele>648</ele>
        <time>2008-07-03T20:41:54Z</time>
      </trkpt>
      <trkpt lat="46.03887" lon="3.70255">
        <ele>647</ele>
        <time>2008-07-03T20:41:54Z</time>
      </trkpt>
      <trkpt lat="46.0401" lon="3.70258">
        <ele>645</ele>
        <time>2008-07-03T20:41:54Z</time>
      </trkpt>
      <trkpt lat="46.04276" lon="3.70041">
        <ele>645</ele>
        <time>2008-07-03T20:41:54Z</time>
      </trkpt>
      <trkpt lat="46.04308" lon="3.70007">
        <ele>649</ele>
        <time>2008-07-03T20:41:54Z</time>
      </trkpt>
      <trkpt lat="46.04339" lon="3.70069">
        <ele>644</ele>
        <time>2008-07-03T20:41:54Z</time>
      </trkpt>
      <trkpt lat="46.04329" lon="3.70117">
        <ele>639</ele>
        <time>2008-07-03T20:41:54Z</time>
      </trkpt>
      <trkpt lat="46.04371" lon="3.70189">
        <ele>635</ele>
        <time>2008-07-03T20:41:54Z</time>
      </trkpt>
      <trkpt lat="46.04384" lon="3.70254">
        <ele>629</ele>
        <time>2008-07-03T20:41:54Z</time>
      </trkpt>
      <trkpt lat="46.04423" lon="3.70168">
        <ele>633</ele>
        <time>2008-07-03T20:41:54Z</time>
      </trkpt>
      <trkpt lat="46.04493" lon="3.70121">
        <ele>632</ele>
        <time>2008-07-03T20:41:54Z</time>
      </trkpt>
      <trkpt lat="46.04723" lon="3.70111">
        <ele>620</ele>
        <time>2008-07-03T20:41:54Z</time>
      </trkpt>
      <trkpt lat="46.04786" lon="3.70141">
        <ele>616</ele>
        <time>2008-07-03T20:41:54Z</time>
      </trkpt>
      <trkpt lat="46.0493" lon="3.70132">
        <ele>608</ele>
        <time>2008-07-03T20:41:54Z</time>
      </trkpt>
      <trkpt lat="46.05009" lon="3.70085">
        <ele>612</ele>
        <time>2008-07-03T20:41:54Z</time>
      </trkpt>
      <trkpt lat="46.05083" lon="3.70094">
        <ele>615</ele>
        <time>2008-07-03T20:41:54Z</time>
      </trkpt>
      <trkpt lat="46.05154" lon="3.70034">
        <ele>620</ele>
        <time>2008-07-03T20:41:54Z</time>
      </trkpt>
      <trkpt lat="46.05174" lon="3.69983">
        <ele>620</ele>
        <time>2008-07-03T20:41:54Z</time>
      </trkpt>
      <trkpt lat="46.05442" lon="3.69964">
        <ele>581</ele>
        <time>2008-07-03T20:41:54Z</time>
      </trkpt>
      <trkpt lat="46.05517" lon="3.69924">
        <ele>570</ele>
        <time>2008-07-03T20:41:54Z</time>
      </trkpt>
      <trkpt lat="46.05602" lon="3.69774">
        <ele>542</ele>
        <time>2008-07-03T20:41:54Z</time>
      </trkpt>
      <trkpt lat="46.05651" lon="3.69649">
        <ele>551</ele>
        <time>2008-07-03T20:41:54Z</time>
      </trkpt>
      <trkpt lat="46.05724" lon="3.6957">
        <ele>557</ele>
        <time>2008-07-03T20:41:54Z</time>
      </trkpt>
      <trkpt lat="46.05772" lon="3.6949">
        <ele>557</ele>
        <time>2008-07-03T20:41:54Z</time>
      </trkpt>
      <trkpt lat="46.0581" lon="3.69491">
        <ele>551</ele>
        <time>2008-07-03T20:41:54Z</time>
      </trkpt>
      <trkpt lat="46.05802" lon="3.6944">
        <ele>552</ele>
        <time>2008-07-03T20:41:54Z</time>
      </trkpt>
      <trkpt lat="46.05909" lon="3.69513">
        <ele>541</ele>
        <time>2008-07-03T20:41:54Z</time>
      </trkpt>
      <trkpt lat="46.05974" lon="3.69531">
        <ele>540</ele>
        <time>2008-07-03T20:41:54Z</time>
      </trkpt>
      <trkpt lat="46.06031" lon="3.69658">
        <ele>539</ele>
        <time>2008-07-03T20:41:54Z</time>
      </trkpt>
      <trkpt lat="46.06053" lon="3.69717">
        <ele>543</ele>
        <time>2008-07-03T20:41:54Z</time>
      </trkpt>
      <trkpt lat="46.06036" lon="3.69769">
        <ele>546</ele>
        <time>2008-07-03T20:41:54Z</time>
      </trkpt>
      <trkpt lat="46.06063" lon="3.69986">
        <ele>551</ele>
        <time>2008-07-03T20:41:54Z</time>
      </trkpt>
      <trkpt lat="46.06074" lon="3.70005">
        <ele>547</ele>
        <time>2008-07-03T20:41:54Z</time>
      </trkpt>
      <trkpt lat="46.06122" lon="3.69974">
        <ele>551</ele>
        <time>2008-07-03T20:41:54Z</time>
      </trkpt>
      <trkpt lat="46.06151" lon="3.69923">
        <ele>559</ele>
        <time>2008-07-03T20:41:54Z</time>
      </trkpt>
      <trkpt lat="46.06189" lon="3.6994">
        <ele>559</ele>
        <time>2008-07-03T20:41:54Z</time>
      </trkpt>
      <trkpt lat="46.06185" lon="3.69973">
        <ele>553</ele>
        <time>2008-07-03T20:41:54Z</time>
      </trkpt>
      <trkpt lat="46.06121" lon="3.7">
        <ele>545</ele>
        <time>2008-07-03T20:41:54Z</time>
      </trkpt>
      <trkpt lat="46.06103" lon="3.70058">
        <ele>527</ele>
        <time>2008-07-03T20:41:54Z</time>
      </trkpt>
      <trkpt lat="46.05984" lon="3.70171">
        <ele>506</ele>
        <time>2008-07-03T20:41:54Z</time>
      </trkpt>
      <trkpt lat="46.06013" lon="3.70185">
        <ele>497</ele>
        <time>2008-07-03T20:41:54Z</time>
      </trkpt>
      <trkpt lat="46.06056" lon="3.70186">
        <ele>490</ele>
        <time>2008-07-03T20:41:54Z</time>
      </trkpt>
      <trkpt lat="46.06104" lon="3.70297">
        <ele>483</ele>
        <time>2008-07-03T20:41:54Z</time>
      </trkpt>
      <trkpt lat="46.06135" lon="3.70372">
        <ele>487</ele>
        <time>2008-07-03T20:41:54Z</time>
      </trkpt>
      <trkpt lat="46.06179" lon="3.70402">
        <ele>489</ele>
        <time>2008-07-03T20:41:54Z</time>
      </trkpt>
      <trkpt lat="46.06219" lon="3.70461">
        <ele>490</ele>
        <time>2008-07-03T20:41:54Z</time>
      </trkpt>
      <trkpt lat="46.06219" lon="3.70458">
        <ele>490</ele>
        <time>2008-07-03T20:41:54Z</time>
      </trkpt>
    </trkseg>
  </trk>
</gpx>